Location: Newark
(46.7000°N, 60.6000°W)
Time: 05:34:12
(UTC+00:00)

Transit 2A Rocket - Pass Details

Date: 27 October 2020
Orbit: 588 x 914 km, 66.7° (Epoch: 27 November)

Event Time Altitude Azimuth Distance (km) Brightness Sun altitude
Rises 00:12:00 0° 312° (NW) 3,250 9.1 -34.0°
Reaches altitude 10° 00:15:25 10° 291° (WNW) 2,243 8.2 -34.5°
Maximum altitude 00:18:17 15° 256° (WSW) 1,845 7.5 -35.0°
Enters shadow 00:19:42 14° 237° (WSW) 1,907 7.4 -35.2°
Drops below altitude 10° 00:21:00 10° 221° (SW) 2,115 - -35.4°
Sets 00:24:06 0° 199° (SSW) 2,960 - -35.9°
